Whiteman AFB, MO

3:07 AM CST on November 20, 2019 (GMT -0600)
Whiteman Air Force Base

Weather History for KSZL - October, 2019

Change the Weather History Date:

Tuesday, October 22, 2019

  Actual Average Record
Temperature  
Mean Temperature 49 °F -  
Max Temperature 59 °F 63 °F 82 °F (2015)
Min Temperature 39 °F 45 °F 28 °F (2006)
Degree Days  
Heating Degree Days 16    
Moisture  
Dew Point 33 °F    
Average Humidity 61    
Maximum Humidity 92    
Minimum Humidity 29    
Precipitation  
Precipitation 0.00 in - - ()
Sea Level Pressure  
Sea Level Pressure 29.92 in    
Wind  
Wind Speed 13 mph (WSW)    
Max Wind Speed 21 mph    
Max Gust Speed 30 mph    
Visibility 10 miles    
Events      
Averages and records for this station are not official NWS values.
T = Trace of Precipitation, MM = Missing Value Source: NWS Daily Summary

Daily Weather History Graph

Daily Weather History Graph

Search for Another Location

Airport or City:

Astronomy

Oct. 22, 2019 Rise Set
Actual Time 7:30 AM CDT 6:26 PM CDT
Civil Twilight 7:03 AM CDT 6:53 PM CDT
Nautical Twilight 6:32 AM CDT 7:24 PM CDT
Astronomical Twilight 6:01 AM CDT 7:55 PM CDT
Moon 12:46 AM CDT (10/22) 3:31 PM CDT (10/22)
Length of Visible Light 11h 50m
Length of Day
10h 56m
Last Quarter, 37% of the Moon is Illuminated
Oct 22
Last Quarter
Oct 27
New
Nov 4
First Quarter
Nov 12
Full
Nov 19
Last Quarter

Hourly Weather History & Observations

Time (CDT) Temp. Windchill Dew Point Humidity Pressure Visibility Wind Dir Wind Speed Gust Speed Precip Events Conditions
12:56 AM 49.6 °F - 38.7 °F 66% 29.81 in 10.0 mi WNW 16.1 mph 23.0 mph N/A   Partly Cloudy
1:56 AM 46.8 °F - 40.3 °F 78% 29.82 in 10.0 mi WSW 9.2 mph - N/A   Clear
2:56 AM 45.5 °F 40.3 °F 39.7 °F 80% 29.83 in 10.0 mi West 10.4 mph - N/A   Clear
3:56 AM 44.2 °F 39.2 °F 39.7 °F 84% 29.83 in 10.0 mi WSW 9.2 mph - N/A   Clear
4:56 AM 43.7 °F 38.1 °F 37.9 °F 80% 29.84 in 10.0 mi West 10.4 mph - N/A   Clear
5:56 AM 42.8 °F 37.0 °F 36.5 °F 78% 29.86 in 10.0 mi West 10.4 mph - N/A   Clear
6:56 AM 42.6 °F 35.2 °F 33.8 °F 71% 29.88 in 10.0 mi West 15.0 mph 19.6 mph N/A   Scattered Clouds
7:56 AM 42.4 °F 36.1 °F 32.5 °F 68% 29.91 in 10.0 mi West 11.5 mph 19.6 mph N/A   Scattered Clouds
8:56 AM 45.3 °F 39.3 °F 32.7 °F 61% 29.94 in 10.0 mi West 12.7 mph - N/A   Clear
9:56 AM 49.5 °F - 31.6 °F 50% 29.95 in 10.0 mi WNW 15.0 mph 20.7 mph N/A   Clear
10:56 AM 52.0 °F - 28.9 °F 41% 29.95 in 10.0 mi West 19.6 mph 27.6 mph N/A   Clear
11:56 AM 55.4 °F - 28.2 °F 35% 29.95 in 10.0 mi West 17.3 mph 24.2 mph N/A   Clear
12:56 PM 57.7 °F - 28.0 °F 32% 29.95 in 10.0 mi WNW 20.7 mph 27.6 mph N/A   Clear
1:56 PM 57.7 °F - 27.3 °F 31% 29.94 in 10.0 mi West 18.4 mph 29.9 mph N/A   Partly Cloudy
2:56 PM 59.0 °F - 26.8 °F 29% 29.94 in 10.0 mi WNW 18.4 mph 28.8 mph N/A   Partly Cloudy
3:56 PM 58.8 °F - 26.6 °F 29% 29.94 in 10.0 mi West 19.6 mph 29.9 mph N/A   Partly Cloudy
5:56 PM 56.5 °F - 28.4 °F 34% 29.96 in 10.0 mi West 9.2 mph - N/A   Partly Cloudy
6:56 PM 50.0 °F - 31.6 °F 49% 29.98 in 10.0 mi West 5.8 mph - N/A   Clear
7:56 PM 48.2 °F - 32.7 °F 55% 29.98 in 10.0 mi SW 6.9 mph - N/A   Clear
8:56 PM 41.2 °F 37.3 °F 35.4 °F 80% 29.97 in 10.0 mi South 5.8 mph - N/A   Clear
9:56 PM 39.7 °F 34.3 °F 36.5 °F 88% 29.97 in 10.0 mi SSW 8.1 mph - N/A   Clear
10:56 PM 39.6 °F 34.7 °F 37.4 °F 92% 29.96 in 10.0 mi South 6.9 mph - N/A   Clear
11:56 PM 40.1 °F 34.1 °F 37.4 °F 90% 29.96 in 10.0 mi SSW 9.2 mph - N/A   Partly Cloudy